Location: Plymouth Village
(34.0436°N, 117.1717°W)
Time: 01:43:48
(UTC+00:00)

Cosmos 1818 - Pass Details

Date: 10 September 2024
Orbit: 771 x 801 km, 65.0° (Epoch: 06 October)

Event Time Altitude Azimuth Distance (km) Brightness Sun altitude
Rises 12:29:38 0° 325° (NW) 3,309 6.6 -12.9°
Reaches altitude 10° 12:32:08 10° 321° (NW) 2,373 5.8 -12.4°
Maximum altitude 12:37:23 51° 246° (WSW) 995 3.7 -11.3°
Drops below altitude 10° 12:42:36 10° 172° (S) 2,343 6.0 -10.3°
Sets 12:45:03 0° 167° (SSE) 3,264 6.8 -9.8°
